Regional Weather Roundup
Issued by NWS Columbia, SC

Home | Current Version | Previous Version | Text Only | Print | Product List | Glossary On
Versions: 1 2 3 4 5 6 7 8 9 10 11 12 13 14 15 16 17 18 19 20 21 22 23 24 25 26 27 28 29 30 31 32 33 34 35 36 37 38 39 40 41 42 43 44 45 46
000
ASUS42 KCAE 220110
RWRCAE
REGIONAL WEATHER ROUNDUP
NATIONAL WEATHER SERVICE COLUMBIA SC
900 PM EDT TUE OCT 21 2014

NOTE: "FAIR" INDICATES FEW OR NO CLOUDS BELOW 12,000 FEET WITH NO
SIGNIFICANT WEATHER AND/OR OBSTRUCTIONS TO VISIBILITY.

NOT ALL STATIONS ARE QUALITY CONTROLLED BY THE NATIONAL
WEATHER SERVICE. USE DATA WITH CAUTION...ESPECIALLY
DEWPOINT OBSERVATIONS.

SCZ001>056-GAZ040-063>065-077-220200-
...UPSTATE SOUTH CAROLINA...

CITY           SKY/WX    TMP DP  RH WIND       PRES   REMARKS
ANDERSON       CLEAR     60  44  55 N7        29.95R
LIBERTY        FAIR      54  48  78 MISG      29.96R
SPARTANBURG    FAIR      63  41  45 N7        29.94S
CLEMSON        CLEAR     65  41  41 W8        29.97R
GREENVILLE     CLEAR     61  42  49 NW5       29.96R
GREENWOOD      CLEAR     61  47  59 N6        29.96R
GREER          CLEAR     57  43  59 N5        29.94R
ROCK HILL      CLOUDY    62  41  46 N9        29.95R
LAURENS        FAIR      61  37  41 N6        29.96R


...CENTRAL SOUTH CAROLINA...

CITY           SKY/WX    TMP DP  RH WIND       PRES   REMARKS
COLUMBIA APT   CLEAR     61  52  72 W5        29.91R
COLUMBIA OWENS CLEAR     63  53  70 CALM      29.92R
DARLINGTON     MOCLDY    59  52  77 NW6       29.91R
FLORENCE       PTCLDY    63  52  67 CALM      29.89R
MCENTIRE ANGB  PTCLDY    60  52  76 CALM      29.91R
ORANGEBURG     PTCLDY    62  54  74 VRB3      29.91R
SUMTER SHAW    CLEAR     66  53  62 W5        29.89R
NEWBERRY       FAIR      63  50  63 N8        29.96R
AIKEN          FAIR      63  52  67 W5        29.96R
BARNWELL       FAIR      61  52  72 W3        29.93R
MANNING        MOCLDY    61  61 100 CALM      29.90S
CAMDEN         FAIR      63  52  67 CALM      29.92R
LANCASTER      FAIR      63  45  51 N3        29.94R
WINNSBORO      MOCLDY    63  46  55 N7        29.93R


...EASTERN AND COASTAL SOUTH CAROLINA...

CITY           SKY/WX    TMP DP  RH WIND       PRES   REMARKS
N MYRTLE BCH   CLEAR     62  59  90 CALM      29.89R
CONWAY         FAIR      57  57 100 CALM      29.90R
MARION         FAIR      59  54  82 CALM      29.89R
HARTSVILLE     MOCLDY    66  37  34 CALM      29.91R
FLORENCE       PTCLDY    63  52  67 CALM      29.89R
DARLINGTON     MOCLDY    59  52  77 NW6       29.91R
CHARLESTON APT CLEAR     64  56  75 SW7       29.91R
MOUNT PLEASANT FAIR      63  59  88 CALM      29.91R
WALTERBORO     CLEAR     59 N/A N/A CALM      29.92R
BEAUFORT       CLEAR     66  60  81 SW5       29.92R


...EASTERN GEORGIA...

CITY           SKY/WX    TMP DP  RH WIND       PRES   REMARKS
AUGUSTA BUSH F CLEAR     68  50  52 NW8       29.93R
AUGUSTA DANIEL CLEAR     70  50  49 W7        29.94R
THOMSON        CLEAR     65  55  69 NW7       29.99R
WASHINGTON     FAIR      66  54  63 W6        29.96R
CLAXTON        FAIR      61  59  94 CALM      29.94S
SYLVANIA       CLEAR     65  59  82 CALM      29.94R
STATESBORO     CLEAR     58  54  86 CALM      29.94R
SAVANNAH       CLEAR     67  57  70 W3        29.93R


...SOUTHERN NORTH CAROLINA...

CITY           SKY/WX    TMP DP  RH WIND       PRES   REMARKS
CHARLOTTE      PTCLDY    60  39  45 N9        29.96R
MONROE         PTCLDY    62  44  51 N9        29.93R
WADESBORO      PTCLDY    60  46  61 NW6       29.92R
ROCKINGHAM     PTCLDY    64  49  59 N6        29.91R
RUTHERFORDTON  CLEAR     58  40  50 N3        29.98R
ASHEVILLE      PTCLDY    54  38  54 N20G26    30.00R

$$



USA.gov is the U.S. government's official web portal to all federal, state and local government web resources and services.